RESOURCESAT-2

Last updated on Thu Nov 21 2024 00:02:27 GMT+0000 (Coordinated Universal Time)

1 37387U 11015A 24325.54296553 .00000320 00000+0 16496-3 0 9994 2 37387 98.5591 26.8044 0004684 35.7820 324.3670 14.21699294704674
UTC large
Height (km)
Speed (km/s)
/
Latitude / Longitude
Inclination (degrees)
Orbital Period (minutes)
Azimuth
Elevation
Range (km)
Doppler Factor

Next 0 passes for location: London (51.5072 / 0.1276)

Sorry there are no passes over London.